This is the latest recevied weather packets stored in our database for station/object EA3KZ-1. If no packets are shown the sender has not sent any weather packets the latest 10 day(s).
| Time | Temp. | Humidity | Pressure | Rain* | Wind** | Luminosity | Snow |
|---|---|---|---|---|---|---|---|
| 1787781918 | 24.44° C | 85% | 1009.1 hPa | 0 mm | - | - | - |
| 1787781315 | 23.89° C | 84% | 1009.1 hPa | 0 mm | - | - | - |
| 1787780773 | 23.89° C | 84% | 1009 hPa | 0 mm | - | - | - |
| 1787780170 | 23.89° C | 84% | 1009 hPa | 0 mm | - | - | - |
| 1787779568 | 23.89° C | 83% | 1008.9 hPa | 0 mm | - | - | - |
| 1787778965 | 23.89° C | 83% | 1009 hPa | 0 mm | - | - | - |
| 1787778362 | 24.44° C | 84% | 1009 hPa | 0 mm | - | - | - |
| 1787777760 | 24.44° C | 84% | 1009 hPa | 0 mm | - | - | - |
| 1787777157 | 24.44° C | 83% | 1009 hPa | 0 mm | - | - | - |
| 1787776555 | 24.44° C | 83% | 1009 hPa | 0 mm | - | - | - |
| 1787775952 | 24.44° C | 83% | 1009.1 hPa | 0 mm | - | - | - |
| 1787775349 | 24.44° C | 84% | 1009 hPa | 0 mm | - | - | - |
| 1787774747 | 24.44° C | 84% | 1008.8 hPa | 0 mm | - | - | - |
| 1787774144 | 25° C | 83% | 1008.8 hPa | 0 mm | - | - | - |
| 1787773541 | 25° C | 83% | 1008.6 hPa | 0 mm | - | - | - |
| 1787772939 | 25° C | 82% | 1008.6 hPa | 0 mm | - | - | - |
| 1787772337 | 25° C | 80% | 1008.5 hPa | 0 mm | - | - | - |
| 1787771734 | 25.56° C | 78% | 1008.4 hPa | 0 mm | - | - | - |
| 1787771131 | 25.56° C | 77% | 1008.4 hPa | 0 mm | - | - | - |
| 1787770529 | 25.56° C | 76% | 1008.3 hPa | 0 mm | - | - | - |
| 1787769926 | 26.11° C | 74% | 1008.3 hPa | 0 mm | - | - | - |
| 1787769323 | 26.11° C | 72% | 1008.4 hPa | 0 mm | - | - | - |
| 1787768721 | 26.67° C | 70% | 1008.4 hPa | 0 mm | - | - | - |
| 1787768118 | 27.22° C | 66% | 1008.4 hPa | 0 mm | - | - | - |
| 1787767516 | 27.78° C | 61% | 1008.3 hPa | 0 mm | - | - | - |
* Rain latest hour (hover to see other rain measurements)
** Current wind speed in m/s (hover to see current wind gust speed)